Location: Edisto_Beach
(32.4790°N, 80.3350°W)
Time: 07:16:33
(UTC-04:00)

Amateur Radio Satellites - All Passes

Search period start: 01 September 2014 06:46
Search period end: 02 September 2014 06:46
Location: Edisto_Beach, 32.4790°N, 80.3350°W

Satellite Date Start Highest point End Downlink Frequencies (MHz)
Time Altitude Azimuth
Saudisat 1A 01 Sep 07:01:54 07:04:25 15° 50° (NE) 07:06:55 436.775 MHz
KITSAT 1 01 Sep 07:09:18 07:11:46 11° 38° (NE) 07:14:14 435.175 FM
JAS-2 01 Sep 07:25:31 07:30:53 88° 103° (ESE) 07:36:48 435.800 - 435.900 CW/SSB, 435.910 FM
SO-67 01 Sep 07:38:54 07:41:05 16° 95° (E) 07:43:15 435.3500 MHz FM
Hamsat 01 Sep 07:46:38 07:50:39 38° 286° (WNW) 07:54:37 145.90 MHz
RS-15 01 Sep 07:56:35 08:07:45 79° 115° (ESE) 08:18:39 29.354 - 29.394 USB, Beacon 29.352 USB
STRAND 1 01 Sep 08:14:54 08:19:18 30° 262° (W) 08:23:44 ?
Saudisat 1A 01 Sep 08:39:59 08:44:15 49° 245° (WSW) 08:48:28 436.775 MHz
ISS 01 Sep 08:58:55 09:00:59 16° 127° (SE) 09:03:04 145.800 FM
KITSAT 1 01 Sep 09:01:06 09:09:02 57° 60° (ENE) 09:16:54 435.175 FM
SO-67 01 Sep 09:11:27 09:14:01 20° 288° (WNW) 09:16:35 435.3500 MHz FM
UKube-1 01 Sep 09:42:07 09:43:51 12° 94° (E) 09:45:35 145.840 MHz, 145.915 MHz
RS-15 01 Sep 10:12:19 10:21:11 27° 316° (NW) 10:30:03 29.354 - 29.394 USB, Beacon 29.352 USB
PANSAT 01 Sep 10:15:45 10:17:54 14° 157° (SSE) 10:20:03 not established
HO-68 01 Sep 10:22:00 10:29:10 74° 104° (ESE) 10:36:19 435.675 MHz FM
ISS 01 Sep 10:34:25 10:37:29 34° 320° (NW) 10:40:34 145.800 FM
KITSAT 1 01 Sep 10:57:33 11:03:51 26° 255° (WSW) 11:10:08 435.175 FM
UKube-1 01 Sep 11:16:05 11:20:13 44° 287° (WNW) 11:24:19 145.840 MHz, 145.915 MHz
AO-40 01 Sep 11:19:22 06:46:03 30° 239° (WSW) 11:58:23 Beacon 2401.320
Oscar 11 01 Sep 11:20:19 11:24:38 62° 284° (WNW) 11:28:55 145.825 FM, Beacon 2401.500 USB
FUNcube-1 01 Sep 11:50:23 11:54:57 77° 283° (WNW) 11:59:33 145.950 - 145.970 MHz USB
PANSAT 01 Sep 11:54:05 11:57:37 34° 169° (S) 12:01:10 not established
HO-68 01 Sep 12:11:38 12:16:05 18° 299° (WNW) 12:20:32 435.675 MHz FM
Oscar 19 01 Sep 12:50:01 12:51:27 11° 64° (ENE) 12:52:53 437.125 CW, 437.150 USB
SO-50 01 Sep 13:10:11 13:15:00 73° 61° (ENE) 13:19:51 436.795 FM
MaSat-1 01 Sep 13:11:29 13:16:13 78° 110° (ESE) 13:21:21 437.345 MHz
Oscar 16 01 Sep 13:22:04 13:26:17 26° 69° (ENE) 13:30:31 437.025 USB, Beacon 2401.1428
ITAMSAT 1 01 Sep 13:26:41 13:27:49 11° 63° (ENE) 13:28:58 435.822 SSB
PANSAT 01 Sep 13:33:50 13:37:33 46° 182° (S) 13:41:16 not established
Uribyol 2 01 Sep 13:34:28 13:37:11 15° 65° (ENE) 13:39:55 436.500 FM
JAS-1B 01 Sep 13:52:17 14:00:51 37° 67° (ENE) 14:08:40 435.800 - 435.900 CW/SSB
AO-27 01 Sep 13:53:08 13:57:02 22° 68° (ENE) 14:00:56 436.795 MHz FM
Oscar 19 01 Sep 14:24:58 14:30:06 73° 258° (WSW) 14:35:17 437.125 CW, 437.150 USB
Oscar 10/S400 01 Sep 14:28:30 14:49:38 19° 156° (SSE) 15:02:33 145.825 - 145.975 CW/USB, Beacon 145.810 USB
Gurwin Techsat 1B 01 Sep 14:31:10 14:35:12 23° 68° (ENE) 14:39:15 435.225 FM
AO-Echo 01 Sep 14:38:13 14:43:16 71° 76° (ENE) 14:48:09 ?
MaSat-1 01 Sep 14:52:00 14:53:52 12° 307° (NW) 14:55:45 437.345 MHz
RS-15 01 Sep 14:53:13 14:59:18 16° 31° (NNE) 15:05:27 29.354 - 29.394 USB, Beacon 29.352 USB
UOSAT-12 01 Sep 15:00:04 15:04:47 74° 61° (ENE) 15:09:24 437.025 FM, 437.400 FM
Oscar 16 01 Sep 15:01:01 15:05:28 29° 263° (W) 15:09:57 437.025 USB, Beacon 2401.1428
ITAMSAT 1 01 Sep 15:01:28 15:06:37 75° 258° (WSW) 15:11:48 435.822 SSB
Uribyol 2 01 Sep 15:11:06 15:16:08 55° 259° (W) 15:21:12 436.500 FM
PANSAT 01 Sep 15:14:03 15:17:26 29° 194° (SSW) 15:20:49 not established
TMSAT-1 01 Sep 15:20:16 15:25:21 50° 73° (ENE) 15:30:26 436.925 FM
AO-27 01 Sep 15:31:33 15:36:16 36° 262° (W) 15:41:00 436.795 MHz FM
Uosat F 01 Sep 15:34:48 15:35:43 11° 64° (ENE) 15:36:39 435.120 FM
Sapphire 01 Sep 15:37:14 15:39:25 13° 103° (ESE) 15:41:36 437.095 MHz 1200 baud AX-25 AFSK
AO-7 01 Sep 15:37:59 15:44:42 28° 61° (ENE) 15:51:23 29.400 - 29.500 MHz
JAS-1B 01 Sep 15:41:25 15:50:55 52° 260° (W) 15:59:43 435.800 - 435.900 CW/SSB
PCSat 01 Sep 16:03:54 16:08:23 27° 107° (ESE) 16:12:52 145.825 MHz
Gurwin Techsat 1B 01 Sep 16:10:03 16:14:54 36° 262° (W) 16:19:46 435.225 FM
PANSAT 01 Sep 16:56:12 16:57:06 11° 205° (SSW) 16:57:59 not established
TMSAT-1 01 Sep 17:02:24 17:05:28 16° 266° (W) 17:08:33 436.925 FM
RS-15 01 Sep 17:03:39 17:14:37 59° 57° (ENE) 17:26:00 29.354 - 29.394 USB, Beacon 29.352 USB
OPAL 01 Sep 17:04:15 17:08:26 24° 98° (E) 17:12:35 ?
ISS 01 Sep 17:06:48 17:09:43 28° 38° (NE) 17:12:38 145.800 FM
Uosat F 01 Sep 17:08:51 17:13:50 73° 258° (WSW) 17:18:51 435.120 FM
Sapphire 01 Sep 17:16:51 17:22:11 65° 297° (WNW) 17:27:35 437.095 MHz 1200 baud AX-25 AFSK
AO-7 01 Sep 17:28:47 17:36:56 57° 257° (WSW) 17:45:06 29.400 - 29.500 MHz
JAS-2 01 Sep 17:34:34 17:39:03 22° 69° (ENE) 17:43:13 435.800 - 435.900 CW/SSB, 435.910 FM
PCSat 01 Sep 17:46:48 17:51:37 32° 302° (WNW) 17:56:28 145.825 MHz
Hamsat 01 Sep 18:34:43 18:39:01 82° 77° (ENE) 18:43:23 145.90 MHz
OPAL 01 Sep 18:42:38 18:47:16 33° 291° (WNW) 18:51:51 ?
ISS 01 Sep 18:43:47 18:46:19 20° 232° (SW) 18:48:50 145.800 FM
STRAND 1 01 Sep 18:53:06 18:54:57 12° 93° (E) 18:56:47 ?
RS-15 01 Sep 19:16:49 19:26:22 34° 254° (WSW) 19:36:18 29.354 - 29.394 USB, Beacon 29.352 USB
JAS-2 01 Sep 19:17:56 19:23:54 43° 260° (W) 19:29:16 435.800 - 435.900 CW/SSB, 435.910 FM
SO-67 01 Sep 19:39:01 19:42:25 57° 77° (ENE) 19:45:49 435.3500 MHz FM
STRAND 1 01 Sep 20:29:25 20:34:26 60° 286° (WNW) 20:39:27 ?
HO-68 01 Sep 20:46:00 20:52:16 35° 66° (ENE) 20:58:33 435.675 MHz FM
UKube-1 01 Sep 22:06:38 22:10:59 87° 77° (ENE) 22:15:20 145.840 MHz, 145.915 MHz
Oscar 11 01 Sep 22:10:34 22:14:47 56° 75° (ENE) 22:19:03 145.825 FM, Beacon 2401.500 USB
HO-68 01 Sep 22:33:19 22:39:48 37° 261° (W) 22:46:19 435.675 MHz FM
Saudisat 1A 01 Sep 22:41:48 22:46:09 63° 300° (WNW) 22:50:32 436.775 MHz
FUNcube-1 01 Sep 22:42:32 22:46:30 45° 74° (ENE) 22:50:34 145.950 - 145.970 MHz USB
MaSat-1 01 Sep 23:10:53 23:15:11 64° 66° (ENE) 23:18:50 437.345 MHz
KITSAT 1 01 Sep 23:23:31 23:31:34 75° 113° (ESE) 23:39:38 435.175 FM
FUNcube-1 02 Sep 00:22:16 00:23:07 11° 268° (W) 00:23:59 145.950 - 145.970 MHz USB
KITSAT 1 02 Sep 01:21:36 01:27:40 23° 312° (NW) 01:33:47 435.175 FM
Oscar 16 02 Sep 01:39:48 01:42:09 13° 93° (E) 01:44:30 437.025 USB, Beacon 2401.1428
Sapphire 02 Sep 02:09:39 02:14:40 38° 59° (ENE) 02:19:40 437.095 MHz 1200 baud AX-25 AFSK
AO-27 02 Sep 02:13:02 02:14:02 11° 92° (E) 02:15:01 436.795 MHz FM
PCSat 02 Sep 02:38:35 02:44:01 76° 65° (ENE) 02:49:25 145.825 MHz
Oscar 19 02 Sep 02:41:20 02:46:28 59° 101° (E) 02:51:34 437.125 CW, 437.150 USB
AO-Echo 02 Sep 02:50:29 02:54:39 31° 98° (E) 02:58:50 ?
Gurwin Techsat 1B 02 Sep 02:53:20 02:55:28 12° 92° (E) 02:57:35 435.225 FM
Oscar 16 02 Sep 03:16:42 03:21:47 57° 286° (WNW) 03:26:51 437.025 USB, Beacon 2401.1428
ITAMSAT 1 02 Sep 03:19:04 03:24:11 58° 101° (E) 03:29:17 435.822 SSB
SO-50 02 Sep 03:20:49 03:25:13 71° 116° (ESE) 03:29:44 436.795 FM
Uribyol 2 02 Sep 03:28:21 03:33:34 78° 103° (ESE) 03:38:46 436.500 FM
JAS-1B 02 Sep 03:34:31 03:40:52 69° 102° (ESE) 03:46:32 435.800 - 435.900 CW/SSB
TMSAT-1 02 Sep 03:41:11 03:45:45 29° 97° (E) 03:50:18 436.925 FM
AO-27 02 Sep 03:48:45 03:53:55 69° 285° (WNW) 03:59:03 436.795 MHz FM
Sapphire 02 Sep 03:53:37 03:57:49 23° 254° (WSW) 04:01:59 437.095 MHz 1200 baud AX-25 AFSK
OPAL 02 Sep 04:14:54 04:19:02 26° 67° (ENE) 04:23:13 ?
Oscar 19 02 Sep 04:22:44 04:25:15 14° 295° (WNW) 04:27:45 437.125 CW, 437.150 USB
PCSat 02 Sep 04:26:01 04:26:41 10° 258° (WSW) 04:27:22 145.825 MHz
AO-Echo 02 Sep 04:29:45 04:33:12 21° 291° (WNW) 04:36:42 ?
Gurwin Techsat 1B 02 Sep 04:30:31 04:35:46 62° 286° (WNW) 04:40:58 435.225 FM
ITAMSAT 1 02 Sep 05:00:31 05:03:08 14° 295° (WNW) 05:05:45 435.822 SSB
SO-50 02 Sep 05:04:48 05:06:16 11° 313° (NW) 05:07:45 436.795 FM
UOSAT-12 02 Sep 05:06:40 05:11:11 66° 116° (ESE) 05:15:49 437.025 FM, 437.400 FM
Uribyol 2 02 Sep 05:11:31 05:12:19 10° 297° (WNW) 05:13:07 436.500 FM
TMSAT-1 02 Sep 05:21:07 05:25:31 28° 291° (WNW) 05:29:56 436.925 FM
Uosat F 02 Sep 05:21:18 05:26:10 50° 101° (E) 05:31:01 435.120 FM
JAS-1B 02 Sep 05:27:40 05:30:33 14° 301° (WNW) 05:33:19 435.800 - 435.900 CW/SSB
AO-7 02 Sep 05:35:22 05:43:38 68° 105° (ESE) 05:51:50 29.400 - 29.500 MHz
OPAL 02 Sep 05:53:22 05:57:44 30° 261° (W) 06:02:11 ?
STRAND 1 02 Sep 06:05:28 06:07:10 12° 64° (ENE) 06:08:53 ?
Hamsat 02 Sep 06:26:01 06:29:16 21° 95° (E) 06:32:29 145.90 MHz
JAS-2 02 Sep 06:31:16 06:35:49 27° 98° (E) 06:40:44 435.800 - 435.900 CW/SSB, 435.910 FM
